World > North America > United States > California > Lake Elsinore  

Lake Elsinore, CA Hourly Weather Forecast

Feedback E-mail the Weather

Quick Clicks

Weather World

24 Hour Forecast

Current Conditions - Mostly Cloudy. Temperature is 59°F15°C, dew point 53°F12°C, humidity 80%. Wind direction is NNW at 5 mph8 km/h with visibility of 9 mi14 km. Barometric pressure is 29.98 in1015 mb.
Today - Partly cloudy with patchy fog this morning...Becoming mostly sunny. Highs 72 to 76. Areas of winds west to 10 mph... Becoming 10 t.. Full Forecast
Tonight - Mostly clear in the evening...Becoming mostly cloudy overnight with patchy fog. Lows 46 to 53. Areas of winds west 10 to 15 mph wi.. Full Forecast

Lake Elsinore Hourly Weather

24 Hour Weather Scroll
Fri, Apr 19
11:00 am
Fri, Apr 19
Noon
Fri, Apr 19
1:00 pm
Fri, Apr 19
2:00 pm
Fri, Apr 19
3:00 pm
Fri, Apr 19
4:00 pm
Fri, Apr 19
5:00 pm
Fri, Apr 19
6:00 pm
Fri, Apr 19
7:00 pm
Fri, Apr 19
8:00 pm
Fri, Apr 19
9:00 pm
Fri, Apr 19
10:00 pm
Fri, Apr 19
11:00 pm
Sat, Apr 20
Midnight
Sat, Apr 20
1:00 am
Sat, Apr 20
2:00 am
Sat, Apr 20
3:00 am
Sat, Apr 20
4:00 am
Sat, Apr 20
5:00 am
Sat, Apr 20
6:00 am
Sat, Apr 20
7:00 am
Sat, Apr 20
8:00 am
Sat, Apr 20
9:00 am
Sat, Apr 20
10:00 am
OvercastSunnySunnySunnySunnySunnySunnySunnySunnyClear Clear Clear Clear Clear Clear Clear Clear Clear Clear Clear SunnySunnySunnySunny
Overcast Sunny Sunny Sunny Sunny Sunny Sunny Sunny Sunny Clear Clear Clear Clear Clear Clear Clear Clear Clear Clear Clear Sunny Sunny Sunny Sunny
57°F14°C 68°F20°C 70°F21°C 71°F22°C 72°F22°C 71°F21°C 68°F20°C 65°F18°C 61°F16°C 58°F15°C 56°F13°C 55°F13°C 54°F12°C 53°F11°C 52°F11°C 51°F11°C 50°F10°C 50°F10°C 49°F9°C 51°F10°C 53°F12°C 56°F13°C 59°F15°C 63°F17°C
48°F
9°C
48°F
9°C
49°F
9°C
49°F
10°C
50°F
10°C
51°F
10°C
50°F
10°C
50°F
10°C
50°F
10°C
50°F
10°C
49°F
10°C
49°F
10°C
49°F
9°C
48°F
9°C
48°F
9°C
48°F
9°C
47°F
9°C
47°F
8°C
46°F
8°C
46°F
8°C
48°F
9°C
48°F
9°C
49°F
9°C
49°F
10°C
29.97 in
1015 mb
29.91 in
1013 mb
29.88 in
1012 mb
29.88 in
1012 mb
29.85 in
1011 mb
29.85 in
1011 mb
29.85 in
1011 mb
29.88 in
1012 mb
29.91 in
1013 mb
29.94 in
1014 mb
29.94 in
1014 mb
29.97 in
1015 mb
29.97 in
1015 mb
29.97 in
1015 mb
29.97 in
1015 mb
29.97 in
1015 mb
29.97 in
1015 mb
29.97 in
1015 mb
29.97 in
1015 mb
30 in
1016 mb
30.03 in
1017 mb
30.03 in
1017 mb
30 in
1016 mb
30 in
1016 mb
83%49%46%44%45%47%51%56%65%75%80%83%85%87%88%89%89%90%91%91%85%77%69%62%
NSSWSWSWSWSWSWSSWSSWSSSSSESSESSESSESESSESSESSESSESW
2 mph
4 km/h
3 mph
5 km/h
4 mph
6 km/h
5 mph
8 km/h
6 mph
9 km/h
6 mph
10 km/h
7 mph
11 km/h
7 mph
11 km/h
6 mph
9 km/h
4 mph
6 km/h
3 mph
5 km/h
3 mph
5 km/h
2 mph
4 km/h
2 mph
4 km/h
3 mph
4 km/h
2 mph
3 km/h
2 mph
3 km/h
2 mph
4 km/h
2 mph
3 km/h
2 mph
3 km/h
2 mph
3 km/h
2 mph
3 km/h
1 mph
2 km/h
2 mph
3 km/h
0%0%0%0%0%0%0%0%0%0%0%0%0%0%0%0%0%0%0%0%0%0%0%0%
8 mi
13 km
6 mi
10 km
6 mi
10 km
6 mi
10 km
6 mi
10 km
6 mi
10 km
6 mi
10 km
6 mi
10 km
6 mi
10 km
6 mi
10 km
6 mi
10 km
6 mi
10 km
6 mi
10 km
6 mi
10 km
6 mi
10 km
6 mi
10 km
6 mi
10 km
6 mi
10 km
6 mi
10 km
6 mi
10 km
6 mi
10 km
6 mi
10 km
6 mi
10 km
6 mi
10 km

Day/Time
Weather
Condition
Temperature
Dew Point
Pressure
Humidity
Wind Direction
Wind Speed
Prob Precip %
Visibility
POP = Probability of Precipitation. ** Indicates missing data/values from KRIV model statistics.

Trending Headlines

Trending Entertainment Headlines

Lake Elsinore Radar Loop

Use the map search tool if you want to place a location marker on the radar map...

48 Hour API Forecast

Prob Precip % = Probability of Precipitation.

Lake Elsinore 36 Hour Forecast

POP = Probability of Precipitation. ** Indicates missing data/values from model statistics.

E-mail the Lake Elsinore Weather Forecast

Voice your opinion or tell us about page issues...

Lake Elsinore CA Weather - 2:16 pm

What are people saying?

Contact Us